Wind_Speed
21 21 20 21 18 17 15 15 15 14 15 15 15 15 15 14 13 12 12 14 14 13 12 11 8 4 1 1 8 8 4 24 22 21 13 6 7 5 4 3 3 4 5 7 7 9 8
18 20 21 21 20 17 15 15 15 16 17 18 17 15 14 13 13 12 12 12 12 12 11 9 6 2 1 2 5 7 11 27 23 22 7 4 7 7 3 4 3 2 3 9 1 5 12
16 18 20 20 21 18 15 15 16 18 19 17 17 16 15 15 14 13 10 8 8 7 8 6 1 1 1 9 4 3 22 21 21 16 6 6 6 2 1 3 2 7 8 10 10 6 5
16 17 19 20 21 20 17 17 18 18 19 18 17 16 16 15 15 13 10 9 4 3 3 2 1 1 6 2 3 7 15 9 11 12 7 15 2 1 2 5 4 3 2 4 8 9 8
16 17 19 20 21 20 16 17 18 19 21 21 19 18 16 15 13 11 10 5 2 3 2 4 5 2 8 5 3 10 13 7 11 6 5 3 6 1 2 2 4 3 3 1 9 13 8
20 18 19 20 20 20 17 16 18 20 21 22 22 20 17 15 13 11 8 3 4 6 7 4 0 2 5 1 4 12 13 13 5 5 3 2 3 2 3 4 3 1 2 1 5 7 6
21 20 19 19 19 20 18 16 17 19 21 22 24 21 19 16 15 15 3 3 3 2 4 6 4 3 4 7 2 6 12 8 5 4 4 2 4 5 7 5 4 2 2 8 4 5 5
21 21 20 20 19 20 19 16 17 19 20 21 23 22 19 15 17 11 3 1 2 1 6 8 5 6 9 3 3 4 19 5 5 4 4 5 5 7 4 5 5 2 7 6 8 6 5
21 22 21 20 18 19 19 17 16 19 20 21 22 23 21 18 16 1 4 3 1 9 1 5 5 4 4 9 5 6 8 5 5 5 4 7 3 7 3 4 5 1 3 6 6 4 3
21 22 21 19 18 19 21 19 17 18 21 23 23 23 23 19 2 5 5 1 15 5 4 5 3 2 4 3 1 5 13 7 3 7 7 3 3 7 4 3 4 3 5 6 14 4 3
20 20 20 20 19 19 20 19 17 18 21 24 25 28 22 15 12 3 1 15 2 4 3 9 3 1 2 4 2 1 7 4 6 6 6 6 6 4 3 4 5 6 3 7 8 4 3
23 22 22 23 20 19 21 21 18 20 23 27 30 28 19 7 5 6 9 13 3 5 3 6 3 5 3 6 4 3 4 4 3 4 2 6 2 5 9 6 7 5 2 7 4 3 2
22 23 24 23 20 20 22 22 19 22 25 29 33 24 14 5 2 2 15 3 5 4 4 7 4 5 4 6 5 6 5 2 4 4 1 3 2 2 4 3 1 3 3 2 2 1 5
22 22 23 22 19 21 22 22 21 24 27 33 28 14 5 6 0 5 4 5 5 2 2 4 4 2 5 7 4 7 3 3 2 5 3 5 4 6 3 7 7 7 8 5 5 5 3
25 23 22 21 19 21 22 23 22 25 30 35 18 4 2 3 9 2 5 4 4 2 3 6 4 7 5 4 3 3 3 2 1 3 6 4 4 3 4 4 9 4 4 7 6 3 4
27 24 22 22 20 20 23 24 25 28 31 28 8 4 5 3 11 4 5 2 1 2 2 2 3 2 5 5 3 4 1 2 3 3 2 5 1 2 4 3 2 7 6 4 3 5 3
27 25 24 22 21 20 23 25 25 29 34 17 4 4 7 9 4 5 3 4 3 4 3 2 1 2 1 3 2 1 1 1 2 2 3 4 3 6 3 1 6 2 1 5 5 4 6
27 24 24 23 22 20 22 24 25 29 35 9 3 3 6 2 4 1 1 3 2 3 2 1 3 2 1 2 2 1 2 3 4 2 3 1 5 3 9 1 3 1 2 5 5 4 2
25 24 25 24 20 19 21 22 23 27 26 4 3 1 3 3 2 3 3 2 2 3 3 2 1 2 2 2 2 1 2 4 5 1 6 6 2 2 7 5 5 5 3 2 3 2 6
24 25 24 21 18 18 20 21 23 28 16 3 3 3 4 4 1 4 1 2 2 1 3 3 2 2 2 2 2 3 2 3 1 2 2 5 3 5 6 3 2 4 4 3 4 3 5
21 23 21 17 18 18 20 19 21 26 12 3 3 1 2 1 3 2 2 2 2 4 4 6 3 3 2 1 1 2 2 5 4 3 2 3 4 5 4 3 2 3 5 7 5 5 6
18 19 17 17 17 18 19 19 21 24 11 4 3 3 3 1 2 2 5 4 2 2 5 5 3 5 3 4 4 2 2 1 2 3 3 4 2 0 3 2 3 3 9 11 2 3 2
16 16 15 16 16 17 17 17 19 21 7 4 3 2 3 3 2 3 2 1 1 0 1 1 2 2 3 2 3 2 4 0 2 3 1 3 4 2 3 4 2 3 8 4 6 4 4
14 15 14 14 14 15 14 14 16 17 17 5 4 2 3 2 3 1 1 1 2 2 0 3 3 1 3 5 3 3 5 1 6 6 1 3 3 2 0 4 3 4 2 0 4 5 2
12 14 15 13 13 14 13 13 14 14 14 6 5 2 3 2 1 3 2 2 2 4 3 2 2 2 3 6 4 6 4 3 6 6 5 2 4 4 3 1 5 2 5 4 3 5 1
12 13 14 11 12 13 12 13 14 15 14 4 9 5 3 5 2 2 2 3 1 2 6 3 3 3 5 4 4 4 3 2 3 5 5 7 7 4 2 4 3 4 2 3 4 4 3
12 12 13 10 10 11 11 12 13 13 14 6 7 9 2 4 3 3 2 2 3 2 1 4 6 6 4 3 3 2 1 0 1 2 3 4 3 3 2 1 5 4 9 3 1 4 2
12 12 12 11 8 10 10 10 11 12 12 6 3 11 2 2 3 1 2 3 1 2 2 3 3 4 4 4 3 2 2 2 2 0 1 3 3 2 2 2 4 11 6 3 2 2 5
13 12 12 11 7 9 10 9 9 9 10 7 3 9 3 2 3 2 4 2 1 5 5 1 3 4 4 4 1 2 1 2 2 1 2 2 4 4 4 4 4 3 5 4 4 2 3
Wind_Direction
360 359 356 358 350 348 347 348 348 345 343 336 330 326 321 318 315 312 311 311 311 309 311 316 318 334 357 41 254 325 315 168 166 171 161 136 119 144 176 216 234 209 195 148 137 192 179
355 356 355 359 358 355 1 3 357 352 345 337 331 327 323 319 315 310 308 304 304 306 309 311 316 34 350 241 324 325 160 162 170 170 174 152 151 198 177 206 204 242 93 123 190 200 156
356 356 354 1 3 3 4 2 358 354 348 338 339 334 326 320 317 313 303 305 304 304 306 305 334 76 85 243 19 109 160 166 170 179 137 198 150 208 294 296 224 156 111 111 135 148 115
357 353 355 358 5 4 3 0 359 356 351 345 342 345 335 333 330 325 327 326 308 317 307 274 172 124 247 225 359 156 163 147 178 173 114 205 145 55 231 305 6 126 98 121 164 172 156
358 353 357 358 4 4 359 359 358 357 354 352 346 344 347 341 341 343 347 2 62 43 122 148 134 127 273 295 238 191 174 151 159 171 206 77 169 227 357 39 19 12 220 187 152 189 144
359 358 359 358 360 2 359 358 358 357 357 354 353 349 351 347 345 348 4 28 107 81 94 143 40 335 276 33 160 174 176 139 132 122 71 126 69 98 42 76 196 123 61 36 136 188 106
3 1 357 356 357 0 358 355 356 358 357 356 353 351 351 347 341 342 2 126 20 27 192 219 195 263 282 323 219 154 163 143 99 93 136 191 96 186 185 190 156 138 87 97 47 44 70
4 1 357 356 355 358 357 351 351 355 357 354 351 348 348 344 333 348 70 136 181 92 307 229 241 270 272 293 305 82 144 122 126 147 126 61 199 208 191 179 145 138 115 96 87 127 96
2 0 357 354 353 354 354 349 348 352 352 351 350 346 344 341 327 9 305 221 86 320 149 298 188 190 217 154 202 182 132 126 128 122 168 140 240 162 174 158 135 125 153 171 133 131 70
5 1 356 351 351 352 352 350 347 348 347 347 344 341 333 337 342 320 273 353 317 192 55 309 351 330 133 193 241 183 165 145 142 156 142 172 176 139 158 156 133 160 213 135 134 152 157
5 360 355 350 350 351 350 347 343 343 342 343 340 333 325 320 300 247 24 334 7 140 56 328 1 333 115 154 122 201 170 64 151 146 109 230 152 147 144 189 156 207 226 139 165 90 100
1 359 353 350 349 348 347 346 342 340 340 339 337 329 317 305 267 274 333 338 129 35 19 349 23 348 75 12 358 113 116 57 138 100 65 199 189 144 185 196 174 137 149 58 73 77 334
360 358 354 353 351 352 348 345 341 337 339 339 337 325 303 226 237 304 342 29 42 83 324 338 341 13 70 356 15 24 132 120 138 97 92 358 257 237 142 128 58 130 156 68 68 66 227
358 355 356 355 359 352 348 344 340 337 340 338 336 331 312 233 211 292 5 50 77 305 339 333 2 337 75 0 20 356 62 121 87 94 109 154 316 178 178 171 177 180 161 148 169 189 230
358 354 353 353 352 351 348 345 339 338 342 341 344 359 343 13 208 255 73 56 193 212 316 347 340 49 8 6 49 54 42 136 189 160 156 141 265 276 192 152 139 193 152 197 114 27 99
354 350 348 349 346 345 347 346 342 340 344 343 346 355 19 101 127 101 72 200 212 222 355 5 81 44 11 337 42 43 10 213 157 213 153 187 338 267 281 122 148 159 167 95 12 138 187
347 348 347 346 344 342 347 347 345 342 344 347 3 57 7 148 30 49 113 222 259 251 221 90 81 78 14 328 40 331 230 352 260 108 136 116 116 286 342 126 177 77 207 59 119 136 159
348 349 347 343 343 343 345 347 347 345 343 356 62 58 4 153 42 48 113 200 292 300 130 192 104 86 181 183 330 323 245 256 63 322 77 141 140 205 228 151 316 168 261 165 135 221 206
348 348 345 343 343 345 346 349 349 347 347 341 81 138 174 343 78 335 291 300 221 337 19 119 71 180 183 189 360 224 276 258 262 273 173 180 12 40 347 4 10 57 336 109 132 78 193
351 349 345 347 349 350 349 353 351 351 5 68 90 58 338 51 55 136 333 13 35 100 67 330 61 90 108 100 256 312 297 299 288 263 52 56 116 143 194 193 187 311 307 290 145 136 176
354 351 352 353 355 353 353 355 355 353 8 26 36 168 189 290 354 67 43 349 43 6 8 34 49 44 271 46 61 355 325 328 359 69 23 96 137 148 211 243 243 235 315 329 219 207 168
355 354 353 358 356 356 357 360 356 3 9 59 101 113 26 40 335 49 2 2 58 351 34 344 40 343 16 164 159 227 15 318 5 35 50 357 115 106 204 248 253 191 2 340 220 150 86
353 352 351 356 357 358 0 6 1 9 15 55 51 73 103 316 53 84 264 236 17 78 354 152 329 330 326 318 251 228 226 200 271 345 83 80 129 91 241 344 300 24 357 305 295 249 150
349 345 345 352 354 358 0 8 6 7 23 43 46 90 79 333 81 149 220 126 65 44 266 308 11 100 268 313 211 67 26 16 127 40 73 118 86 29 107 5 162 210 35 94 300 19 48
344 340 340 345 349 355 355 3 8 7 13 53 39 87 108 85 253 19 43 83 352 336 8 312 301 243 340 28 39 29 340 30 356 43 23 96 120 67 114 135 286 252 41 47 4 321 122
340 335 334 338 346 352 353 356 4 7 13 78 37 34 110 119 290 239 79 16 254 305 345 305 339 331 67 73 70 148 224 198 324 353 61 54 68 108 103 105 245 248 2 347 144 277 139
332 328 327 329 342 348 347 353 359 7 15 49 35 23 97 103 278 133 143 168 120 96 206 307 337 8 50 54 70 117 231 310 167 9 353 14 13 108 132 119 272 296 298 269 141 256 39
327 320 321 324 335 339 337 346 353 3 15 34 40 12 17 111 294 240 145 132 92 94 129 278 35 350 42 64 109 222 114 267 38 321 128 120 128 193 88 99 301 16 324 126 292 287 132
324 315 316 317 325 333 335 341 345 355 10 21 42 354 19 105 203 359 28 42 272 192 140 11 183 192 182 93 91 117 57 54 147 246 333 50 182 181 158 215 286 310 261 301 172 196 139
Height
823 820 816 813 810 807 805 803 801 798 795 792 790 788 786 784 783 781 779 779 778 776 774 773 772 772 773 772 765 754 752 755 761 766 768 772 780 789 797 792 788 788 784 782 784 785 789
824 821 817 813 809 806 804 801 799 797 795 792 789 786 783 780 779 778 777 775 775 774 773 772 771 772 774 773 756 754 752 756 760 766 770 771 777 780 785 786 787 774 777 783 785 789 790
823 820 817 813 809 806 803 801 799 797 794 791 787 784 781 779 776 775 772 771 771 770 771 771 771 773 774 764 756 755 756 758 762 766 771 772 773 777 778 783 774 774 789 790 792 792 798
822 819 816 812 809 806 804 801 798 795 792 788 785 782 781 778 777 774 772 771 769 769 768 770 772 774 769 755 756 757 759 762 765 768 770 771 774 775 778 773 776 784 785 803 799 795 801
821 818 815 812 809 806 803 801 798 795 792 788 785 782 779 776 775 772 771 769 769 769 768 771 773 774 767 755 755 756 759 762 766 770 770 772 775 779 777 789 800 792 807 800 801 788 799
820 818 815 812 808 806 803 800 797 795 791 787 784 781 778 775 773 772 771 771 770 771 773 773 773 777 757 754 752 754 759 762 766 770 773 774 783 792 797 804 821 805 800 798 800 797 798
820 817 814 811 808 806 802 800 797 794 791 788 784 780 777 774 772 772 770 771 775 774 772 764 761 760 754 752 751 754 757 761 766 773 788 780 796 805 796 792 790 792 794 799 806 803 808
820 817 814 811 808 806 803 800 797 794 790 787 783 779 776 773 770 768 769 770 768 772 771 756 759 758 754 754 758 754 757 766 771 786 782 794 802 789 784 788 788 791 802 811 809 806 811
820 817 814 811 808 805 802 799 796 793 789 785 782 779 776 773 770 768 769 767 768 767 774 758 755 754 750 752 756 756 755 763 774 783 785 796 786 780 783 790 794 797 798 809 808 812 811
821 818 814 811 807 804 801 798 795 792 788 784 780 777 773 771 771 768 766 766 765 764 785 764 755 748 749 748 754 747 750 758 769 784 785 784 778 783 788 791 792 805 789 786 807 819 829
821 817 814 810 807 804 801 797 793 790 786 782 778 774 770 769 768 767 766 763 762 766 801 759 755 745 746 754 750 752 748 754 772 775 781 790 784 786 791 788 785 802 784 788 806 821 824
820 817 814 810 806 803 800 796 792 788 785 780 775 771 767 765 765 762 763 761 763 790 796 770 758 762 757 757 753 751 753 752 757 771 773 779 769 775 781 778 779 780 786 803 813 828 842
820 817 813 809 806 802 798 794 790 786 782 776 771 766 763 763 762 762 761 761 793 803 774 778 774 771 771 775 763 763 766 771 782 797 794 783 781 771 770 784 780 783 796 835 841 843 845
820 816 812 808 805 801 797 793 788 783 778 771 764 759 759 760 760 763 762 778 800 785 784 773 775 773 780 780 779 775 772 783 775 783 804 806 810 781 771 780 793 798 803 830 844 853 834
820 816 812 808 804 801 797 792 786 781 776 768 761 759 758 759 760 762 771 803 799 790 781 782 779 787 788 782 780 781 784 787 782 778 797 808 799 770 767 767 775 796 808 792 823 823 831
820 816 812 808 804 800 796 791 786 780 774 765 761 760 760 761 761 764 784 797 790 783 779 781 791 789 794 790 786 787 786 778 778 774 775 791 803 778 768 764 768 779 781 809 825 838 830
821 816 811 807 803 800 795 790 784 779 771 764 761 765 766 765 765 774 797 797 787 778 779 782 786 789 792 794 792 793 787 777 774 776 775 785 798 792 776 779 787 788 793 802 807 818 832
820 815 811 806 802 798 794 789 784 777 770 765 764 776 768 769 781 803 797 791 783 779 776 779 781 785 789 791 792 793 790 784 774 777 782 785 805 807 792 774 776 774 783 790 813 813 820
818 815 810 805 801 798 793 789 783 776 769 768 774 778 772 770 794 800 792 785 782 779 779 777 780 781 786 790 795 791 787 775 773 776 782 782 810 815 800 790 782 792 787 788 801 804 810
816 814 810 805 801 797 794 789 784 778 771 769 775 784 780 779 790 787 787 787 783 775 780 779 778 779 784 790 791 791 788 775 772 772 770 779 809 809 819 802 801 799 792 786 795 808 805
815 812 809 804 801 798 794 790 784 778 772 771 777 787 788 792 790 789 788 787 785 789 782 783 783 786 787 790 790 791 788 785 775 772 776 783 799 799 799 798 796 794 793 790 790 785 789
814 811 809 805 802 799 795 791 787 781 774 774 782 785 789 796 793 788 797 792 788 787 788 790 789 785 786 789 788 792 789 787 783 778 784 790 802 794 796 794 794 791 790 787 779 781 783
814 811 809 806 802 799 796 792 788 783 779 777 780 782 784 796 795 795 798 790 789 786 785 785 788 788 787 784 783 780 782 785 785 788 790 794 803 807 806 803 792 802 796 794 793 777 781
813 811 808 806 803 799 796 793 789 784 781 781 782 783 789 799 795 794 786 785 787 787 789 784 785 788 782 778 779 780 781 784 787 793 791 800 808 813 812 808 812 794 783 784 787 780 779
811 810 808 806 803 801 798 794 790 786 783 781 781 782 788 800 797 789 786 787 787 790 787 786 783 782 781 783 791 794 803 788 792 795 797 795 807 818 820 824 810 788 786 794 800 790 781
811 809 807 806 804 801 798 797 793 788 785 783 783 782 784 794 796 787 791 791 796 796 794 786 782 782 784 800 804 812 813 803 801 796 797 798 805 814 820 820 824 797 787 783 788 800 779
809 808 807 804 803 801 799 797 794 790 787 787 787 784 784 791 788 787 793 794 795 799 801 798 790 789 788 807 817 823 817 809 815 806 808 815 821 822 819 821 814 794 791 781 801 804 784
807 807 806 804 802 801 799 796 795 791 788 787 788 787 786 789 787 784 784 788 793 798 800 795 797 795 802 811 817 825 828 826 818 807 806 814 823 822 825 821 818 792 786 792 794 791 789
805 805 804 802 801 800 799 797 795 792 790 788 788 788 786 787 788 785 784 784 784 784 792 798 797 798 800 813 821 826 827 826 828 825 807 816 815 818 819 819 804 801 797 792 789 793 791